Location: Stilling
(56.0622°N, 9.9882°E)
Time: 23:12:11
(UTC+00:00)

Cosmos 1633 - Pass Details

Date: 13 July 2020
Orbit: 463 x 482 km, 82.5° (Epoch: 14 August)

Event Time Altitude Azimuth Distance (km) Brightness Sun altitude
Exits shadow 22:22:50 17° 173° (S) 1,272 4.0 -11.1°
Maximum altitude 22:25:26 58° 98° (E) 561 2.7 -11.2°
Drops below altitude 10° 22:29:00 10° 18° (NNE) 1,655 6.2 -11.4°
Sets 22:31:06 0° 15° (NNE) 2,535 7.4 -11.4°
